Tacima, Brazil
Current Conditions -  °F | °C
As of 5:00 AM on Sunday 26 Oct 2014 (Local Time) from SBNT Reporting Station
Scattered Clouds Scattered Clouds  
Wind Chill: 73°   Ceiling: Unl
Heat Index: 73°   Visibility: 6mi
Dew Point: 68°   Wind: 5mph
Humidity: 83%   Direction: 200°SSW
Pressure: 29.88"   Gusts: NA
Location:  6.49°S, 35.64°W
Report Text: SBNT 260800Z 20004KT 9999 SCT020 23/20 Q1012
Loading
Personal Weather Stations






























Interactive Weather Map
Tropical Storm Tracking
New forecast layout! Learn more

10-Day Weather Forecast

Advertisements
Track Severe Weather on mobile